Regional Weather Roundup
Issued by NWS Kansas City/Pleasant Hill, MO

Home | Current Version | Previous Version | Text Only | Print | Product List | Glossary On
Versions: 1 2 3 4 5 6 7 8 9 10 11 12 13 14 15 16 17 18 19 20 21 22 23 24 25 26 27 28 29 30 31 32 33 34 35 36 37 38 39 40 41 42 43 44 45 46 47 48 49 50
000
ASUS43 KEAX 011810
RWREAX

WEATHER ROUNDUP FOR EASTERN KANSAS AND NORTHWEST MISSOURI
NATIONAL WEATHER SERVICE KANSAS CITY/PLEASANT HILL MO
100 PM CDT SUN MAY 01 2016

KSZ040-057-103>105-MOZ028-029-037-043-011900-
...KANSAS CITY METROPOLITAN AREA...

CITY           SKY/WX    TMP DP  RH WIND       PRES   REMARKS
K.C. INTL      PTSUNNY   60  48  64 W12       30.00R
6HR MIN TEMP:  51; 6HR MAX TEMP:  61;

K.C. DOWNTOWN  CLOUDY    60  46  59 W9        29.99S
6HR MIN TEMP:  52; 6HR MAX TEMP:  61;

LEES SUMMIT    CLOUDY    58  43  57 W8        30.01R
6HR MIN TEMP:  50; 6HR MAX TEMP:  60;

OLATHE - IXD   CLOUDY    57  45  64 W10       30.02R
6HR MIN TEMP:  47; 6HR MAX TEMP:  58;

OLATHE - OJC   CLOUDY    56  43  61 W12       30.01R
6HR MIN TEMP:  47; 6HR MAX TEMP:  57;

LAWRENCE       PTSUNNY   62  47  57 NW13      30.02R

$$

MOZ001>008-011>017-020>025-030>033-038>040-044>046-053-054-011900-
...NORTHERN AND CENTRAL MISSOURI...

CITY           SKY/WX    TMP DP  RH WIND       PRES   REMARKS
ST. JOSEPH     CLOUDY    55  49  80 N10       30.01S
6HR MIN TEMP:  52; 6HR MAX TEMP:  55; 6HR PCP:  0.04;

MOSBY          CLOUDY    57  45  62 W8G16     29.99S
WARRENSBURG    CLOUDY    61  41  48 SW12      29.99S
WHITEMAN AFB   PTSUNNY   61  42  49 W13G20    29.98R
6HR MIN TEMP:  50; 6HR MAX TEMP:  63;

CLINTON        PTSUNNY   63  46  55 W15       30.01S
SEDALIA        PTSUNNY   64  45  49 W10G22    29.99R
6HR MIN TEMP:  50; 6HR MAX TEMP:  64;

WARSAW         NOT AVBL
CHILLICOTHE      N/A     55  51  86 N6        29.99R
6HR MIN TEMP:  52; 6HR MAX TEMP:  58; 6HR PCP:  0.02;

KIRKSVILLE     CLOUDY    52  49  89 N5        29.97S
6HR MIN TEMP:  48; 6HR MAX TEMP:  54; 6HR PCP: TRACE;


$$

MOZ041-047>049-056>058-063>065-088>090-097-011900-
...EASTERN AND SOUTHERN MISSOURI...

CITY           SKY/WX    TMP DP  RH WIND       PRES   REMARKS
ST. LOUIS INTL PTSUNNY   66  58  75 N6        29.95S
6HR MIN TEMP:  60; 6HR MAX TEMP:  68;

SPIRIT OF STL  PTSUNNY   67  59  75 CALM      29.94F
COLUMBIA       MOSUNNY   66  49  54 W15       29.95F
JEFFERSON CITY PTSUNNY   64  47  53 NW9       29.95F
ROLLA          MOSUNNY   66  50  56 W9        29.94F
OSAGE BEACH    SUNNY     66  43  42 SW12      29.97S
SPRINGFIELD    SUNNY     65  43  44 W13G20    30.01R
BRANSON        SUNNY     66  45  45 W15       30.02R
JOPLIN         MOSUNNY   61  46  57 W13G25    30.05R
WEST PLAINS    SUNNY     69  49  48 SW8       29.97F

$$

IAZ060-094-KSZ022-034>040-054-083-096-NEZ052-066-093-011900-
...KANSAS...SOUTHEAST NEBRASKA AND IOWA...

CITY           SKY/WX    TMP DP  RH WIND       PRES   REMARKS
TOPEKA         CLOUDY    59  47  64 W15G21    30.03R
6HR MIN TEMP:  48; 6HR MAX TEMP:  59;

MANHATTAN      CLOUDY    58  47  66 N9G18     30.06R
EMPORIA        CLOUDY    54  46  74 NW12      30.05F
CHANUTE        PTSUNNY   60  43  53 W13       30.05S
WICHITA        CLOUDY    56  43  61 NW18      30.10R
OMAHA          LGT RAIN  47  44  90 N15       30.10S FOG
LINCOLN        CLOUDY    49  43  80 N17       30.12R
FALLS CITY     CLOUDY    52  46  80 N14       30.04R
LAMONI         LGT RAIN  48  46  93 N10       30.00S
DES MOINES     LGT RAIN  47  44  90 NE9       30.05R FOG

$$




USA.gov is the U.S. government's official web portal to all federal, state and local government web resources and services.